Powrót do katalogu

NIMBUS 2 DEB

AktywnyLEO
NORAD 28609·DEBRIS·🇺🇸 United States

Wystrzelony May 15, 1966 z Vandenberg Space Force Base

Loading…

Następne Przeloty (najbliższe 24 godziny)

TLE

Starzejące sięSource: Space-Track

Epoka: Sep 10, 2026, 00:00 UTC

1 28609U 66040Y   26253.00019854  .00000994  00000-0  16137-2 0  9998
2 28609 100.3363 171.8311 0050367 116.4782 303.2472 13.50461478646630

Śledź NIMBUS 2 DEB w czasie rzeczywistym z AllMySat

Download on the App Store